OK2ARM-12 Weather Reports


time (UTC)temp
F
wind
direction
speed
knots
gust
knots
rain 1hr
in
rain 24hr
in
rain mn
in
humidity
%
barometer
mb
20260506143648 66 0.0 0.0 0.00 0.00 0.00 48 1005.8
20260506141423 65 0.0 0.0 0.00 0.00 0.00 50 1006.1
20260506140423 66 0.0 0.0 0.00 0.00 0.00 49 1006.0
20260506135423 66 0.0 0.0 0.00 0.00 0.00 47 1006.1
20260506134423 66 0.0 0.0 0.00 0.00 0.00 49 1006.3
20260506133423 66 0.0 0.0 0.00 0.00 0.00 47 1006.3
20260506132423 67 0.0 0.0 0.00 0.00 0.00 46 1006.6
20260506131423 66 0.0 0.0 0.00 0.00 0.00 45 1006.5
20260506130423 66 0.0 0.0 0.00 0.00 0.00 45 1006.8
20260506125423 67 0.0 0.0 0.00 0.00 0.00 43 1006.8
20260506124423 67 0.0 0.0 0.00 0.00 0.00 45 1007.0
20260506123423 66 0.0 0.0 0.00 0.00 0.00 44 1007.1
20260506122423 66 0.0 0.0 0.00 0.00 0.00 46 1007.2
20260506121424 65 0.0 0.0 0.00 0.00 0.00 44 1007.3
20260506120423 65 0.0 0.0 0.00 0.00 0.00 46 1007.4
20260506115423 66 0.0 0.0 0.00 0.00 0.00 43 1007.4
20260506114423 65 0.0 0.0 0.00 0.00 0.00 44 1007.4
20260506112159 65 0.0 0.0 0.00 0.00 0.00 47 1007.4
20260506111159 64 0.0 0.0 0.00 0.00 0.00 49 1007.5
20260506110159 65 0.0 0.0 0.00 0.00 0.00 46 1007.7
20260506105159 64 0.0 0.0 0.00 0.00 0.00 50 1007.8
20260506104159 65 0.0 0.0 0.00 0.00 0.00 52 1007.8
20260506100712 64 0.0 0.0 0.00 0.00 0.00 53 1008.1
20260506095712 64 0.0 0.0 0.00 0.00 0.00 52 1008.3
20260506094712 63 0.0 0.0 0.00 0.00 0.00 53 1008.4
20260506092448 63 0.0 0.0 0.00 0.00 0.00 55 1008.3
20260506091449 61 0.0 0.0 0.00 0.00 0.00 56 1008.3
20260506090448 63 0.0 0.0 0.00 0.00 0.00 58 1008.4
20260506085448 62 0.0 0.0 0.00 0.00 0.00 59 1008.3
20260506084448 60 0.0 0.0 0.00 0.00 0.00 61 1008.3
20260506083448 61 0.0 0.0 0.00 0.00 0.00 60 1008.4
20260506082448 60 0.0 0.0 0.00 0.00 0.00 62 1008.5
20260506081448 62 0.0 0.0 0.00 0.00 0.00 62 1008.6
20260506072959 59 0.0 0.0 0.00 0.00 0.00 67 1008.5
20260506071959 58 0.0 0.0 0.00 0.00 0.00 67 1008.7
20260506070959 57 0.0 0.0 0.00 0.00 0.00 66 1008.7
20260506061735 55 0.0 0.0 0.00 0.00 0.00 75 1008.5
20260506060735 55 0.0 0.0 0.00 0.00 0.00 75 1008.5
20260506045024 51 0.0 0.0 0.00 0.00 0.00 93 1007.9
20260506044025 52 0.0 0.0 0.00 0.00 0.00 92 1007.9
20260506043025 52 0.0 0.0 0.00 0.00 0.00 90 1007.9
20260506040800 53 0.0 0.0 0.00 0.00 0.00 90 1007.6
20260506035800 53 0.0 0.0 0.00 0.00 0.00 90 1007.5
20260506034800 53 0.0 0.0 0.00 0.00 0.00 93 1007.4
20260506033800 53 0.0 0.0 0.00 0.00 0.00 95 1007.4
20260506032800 52 0.0 0.0 0.00 0.00 0.00 95 1007.2
20260506031800 52 0.0 0.0 0.00 0.00 0.00 95 1007.3
20260506030800 52 0.0 0.0 0.00 0.00 0.00 94 1007.3
20260506025800 52 0.0 0.0 0.00 0.00 0.00 93 1007.3
20260506024800 52 0.0 0.0 0.00 0.00 0.00 92 1007.4
20260506023801 53 0.0 0.0 0.00 0.00 0.00 92 1007.3
20260506022800 53 0.0 0.0 0.00 0.00 0.00 91 1007.3
20260506021800 52 0.0 0.0 0.00 0.00 0.00 90 1007.3
20260506020800 52 0.0 0.0 0.00 0.00 0.00 90 1007.3
20260506015800 52 0.0 0.0 0.00 0.00 0.00 88 1007.3
20260506014800 52 0.0 0.0 0.00 0.00 0.00 85 1007.3
20260506011313 52 0.0 0.0 0.00 0.00 0.00 79 1006.7
20260506010313 53 0.0 0.0 0.00 0.00 0.00 78 1006.5
20260506005313 54 0.0 0.0 0.00 0.00 0.00 75 1006.4
20260506004314 54 0.0 0.0 0.00 0.00 0.00 74 1006.6
20260506003313 54 0.0 0.0 0.00 0.00 0.00 73 1006.8
20260506002313 54 0.0 0.0 0.00 0.00 0.00 72 1007.0
20260506000050 55 0.0 0.0 0.00 0.00 0.00 70 1006.5
20260505235049 55 0.0 0.0 0.00 0.00 0.00 69 1006.4
20260505232826 55 0.0 0.0 0.00 0.00 0.00 69 1006.1
20260505231827 55 0.0 0.0 0.00 0.00 0.00 69 1006.4
20260505225602 56 0.0 0.0 0.00 0.00 0.00 65 1006.2
20260505224602 56 0.0 0.0 0.00 0.00 0.00 65 1006.2
20260505222339 56 0.0 0.0 0.00 0.00 0.00 64 1006.0
20260505221339 56 0.0 0.0 0.00 0.00 0.00 63 1006.0
20260505220338 56 0.0 0.0 0.00 0.00 0.00 63 1006.0
20260505215339 56 0.0 0.0 0.00 0.00 0.00 62 1005.9
20260505214339 56 0.0 0.0 0.00 0.00 0.00 61 1005.7
20260505210851 57 0.0 0.0 0.00 0.00 0.00 58 1005.5
20260505205851 57 0.0 0.0 0.00 0.00 0.00 58 1005.6
20260505204851 57 0.0 0.0 0.00 0.00 0.00 57 1005.6
20260505203851 58 0.0 0.0 0.00 0.00 0.00 57 1005.7
20260505202851 58 0.0 0.0 0.00 0.00 0.00 56 1005.7
20260505201852 58 0.0 0.0 0.00 0.00 0.00 56 1005.6
20260505200851 59 0.0 0.0 0.00 0.00 0.00 55 1005.7
20260505195851 59 0.0 0.0 0.00 0.00 0.00 55 1005.7
20260505194852 59 0.0 0.0 0.00 0.00 0.00 54 1005.6
20260505193851 59 0.0 0.0 0.00 0.00 0.00 54 1005.7
20260505192852 60 0.0 0.0 0.00 0.00 0.00 53 1005.6
20260505191851 60 0.0 0.0 0.00 0.00 0.00 52 1005.5
20260505190851 61 0.0 0.0 0.00 0.00 0.00 51 1005.5
20260505184627 62 0.0 0.0 0.00 0.00 0.00 49 1005.5
20260505182403 63 0.0 0.0 0.00 0.00 0.00 46 1005.3
20260505181403 64 0.0 0.0 0.00 0.00 0.00 45 1005.3
20260505180404 65 0.0 0.0 0.00 0.00 0.00 43 1005.2
20260505175403 66 0.0 0.0 0.00 0.00 0.00 41 1005.2
20260505174403 67 0.0 0.0 0.00 0.00 0.00 40 1005.2
20260505173403 67 0.0 0.0 0.00 0.00 0.00 38 1005.1
20260505172403 68 0.0 0.0 0.00 0.00 0.00 37 1005.1
20260505171404 69 0.0 0.0 0.00 0.00 0.00 36 1005.0
20260505170403 69 0.0 0.0 0.00 0.00 0.00 34 1005.0
20260505164141 70 0.0 0.0 0.00 0.00 0.00 26 1005.1
20260505161916 71 0.0 0.0 0.00 0.00 0.00 25 1005.3
20260505160916 71 0.0 0.0 0.00 0.00 0.00 24 1005.3
20260505152916 71 0.0 0.0 0.00 0.00 0.00 23 1005.6
20260505151916 71 0.0 0.0 0.00 0.00 0.00 24 1005.8